Weather History for Omaha Offutt, NE

Change the Weather History Date:

Saturday, October 6, 2012

  Actual Average Record
Temperature  
Mean Temperature 36 °F -  
Max Temperature 48 °F 68 °F 91 °F (1997)
Min Temperature 25 °F 46 °F 25 °F (2012)
Degree Days  
Heating Degree Days 29    
Moisture  
Dew Point 23 °F    
Average Humidity 53    
Maximum Humidity 79    
Minimum Humidity 41    
Precipitation  
Precipitation 0.00 in - - ()
Sea Level Pressure  
Sea Level Pressure 30.34 in    
Wind  
Wind Speed 8 mph (NW)    
Max Wind Speed 13 mph    
Max Gust Speed 22 mph    
Visibility 10 miles    
Events      
Averages and records for this station are not official NWS values.
T = Trace of Precipitation, MM = Missing Value Source: NWS Daily Summary

Daily Weather History Graph

Daily Weather History Graph

Search for Another Location

Airport:

Trip Planner

Search our weather history database for the weather conditions in past years. The results will help you decide how hot, cold, wet, or windy it might be!

Date:

Astronomy

Oct. 06, 2012 Rise Set
Actual Time 7:26 AM CDT 6:56 PM CDT
Civil Twilight 6:58 AM CDT 7:23 PM CDT
Nautical Twilight 6:26 AM CDT 7:55 PM CDT
Astronomical Twilight 5:54 AM CDT 8:27 PM CDT
Moon 11:10 PM CDT (10/6) 1:23 PM CDT (10/6)
Length of Visible Light 12h 25m
Length of Day
11h 30m
Waning Gibbous, 65% of the Moon is Illuminated
Oct 6
Waning Gibbous
Oct 8
Last Quarter
Oct 15
New
Oct 21
First Quarter
Oct 29
Full

Hourly Weather History & Observations

Time (CDT) Temp. Windchill Dew Point Humidity Pressure Visibility Wind Dir Wind Speed Gust Speed Precip Events Conditions
12:55 AM 37.0 °F 31.6 °F 24.1 °F 59% 30.32 in 10.0 mi NW 6.9 mph - N/A   Clear
1:55 AM 40.3 °F 35.5 °F 23.0 °F 50% 30.32 in 10.0 mi NNW 6.9 mph - N/A   Overcast
2:55 AM 41.0 °F 34.7 °F 20.8 °F 45% 30.32 in 10.0 mi North 10.4 mph - N/A   Overcast
3:55 AM 37.8 °F 33.3 °F 19.4 °F 48% 30.31 in 10.0 mi NNW 5.8 mph - N/A   Clear
4:55 AM 36.0 °F 29.0 °F 19.9 °F 52% 30.31 in 10.0 mi NNW 9.2 mph - N/A   Clear
5:55 AM 31.6 °F 25.1 °F 21.2 °F 65% 30.34 in 10.0 mi SW 6.9 mph - N/A   Clear
6:55 AM 30.7 °F 26.0 °F 20.8 °F 67% 30.36 in 10.0 mi West 4.6 mph - N/A   Clear
7:55 AM 25.2 °F 19.5 °F 19.4 °F 79% 30.38 in 10.0 mi NW 4.6 mph - N/A   Clear
8:55 AM 34.0 °F 31.0 °F 22.6 °F 63% 30.40 in 10.0 mi NW 3.5 mph - N/A   Clear
9:55 AM 37.6 °F 35.1 °F 23.2 °F 56% 30.40 in 10.0 mi WSW 3.5 mph - N/A   Clear
10:55 AM 42.8 °F 37.0 °F 23.5 °F 47% 30.40 in 10.0 mi NNW 10.4 mph - N/A   Partly Cloudy
11:55 AM 44.1 °F 38.1 °F 23.9 °F 45% 30.38 in 10.0 mi NNW 11.5 mph 18.4 mph N/A   Clear
12:55 PM 46.2 °F 40.5 °F 24.3 °F 42% 30.38 in 10.0 mi NNW 12.7 mph 18.4 mph N/A   Clear
1:55 PM 46.6 °F - 23.9 °F 41% 30.35 in 10.0 mi North 10.4 mph 21.9 mph N/A   Overcast
2:55 PM 47.1 °F - 24.8 °F 42% 30.32 in 10.0 mi NW 11.5 mph - N/A   Scattered Clouds
3:55 PM 47.8 °F - 24.8 °F 41% 30.32 in 10.0 mi NNW 10.4 mph - N/A   Clear
4:55 PM 46.8 °F - 25.0 °F 43% 30.31 in 10.0 mi NNW 10.4 mph - N/A   Mostly Cloudy
5:55 PM 45.5 °F 39.6 °F 24.1 °F 43% 30.32 in 10.0 mi NNW 12.7 mph - N/A   Partly Cloudy
6:55 PM 44.4 °F 39.0 °F 24.4 °F 45% 30.32 in 10.0 mi NW 10.4 mph - N/A   Overcast
7:55 PM 42.8 °F 39.3 °F 25.7 °F 51% 30.33 in 10.0 mi WNW 5.8 mph - N/A   Overcast
8:55 PM 43.3 °F 37.7 °F 24.4 °F 47% 30.34 in 10.0 mi NNW 10.4 mph - N/A   Overcast
9:55 PM 36.9 °F 33.1 °F 24.4 °F 61% 30.34 in 10.0 mi NW 4.6 mph - N/A   Clear
10:55 PM 34.9 °F 30.8 °F 23.4 °F 63% 30.34 in 10.0 mi West 4.6 mph - N/A   Clear
11:55 PM 32.0 °F 27.5 °F 24.4 °F 74% 30.33 in 10.0 mi NW 4.6 mph - N/A   Clear